{"data":{"norad_id":57783,"epoch":"2026-09-20T11:51:32.360256Z","epoch_age_seconds":149007,"freshness":"FRESH","line1":"1 57783U 23134N   26263.49412454  .00001167  00000+0  51926-4 0  9996","line2":"2 57783  43.0056 177.4011 0001430 267.4098  92.6590 15.27579015169262","mean_motion":15.27579015,"eccentricity":0.000143,"inclination_deg":43.0056,"raan_deg":177.4011,"arg_perigee_deg":267.4098,"mean_anomaly_deg":92.659,"bstar":5.1926e-5,"rev_number":16926,"period_min":94.266809497903,"perigee_km":482.07089545209,"apogee_km":484.03319551909,"semimajor_km":6861.1890454856,"source":"CELESTRAK","updated_at":"2026-09-21T09:00:33.704579Z"}}